Location: Newark
(54.9867°N, 38.6060°E)
Time: 04:18:16
(UTC+00:00)

OTV 5 (USA 277) - Visible Passes

Search period start: 16 October 2019 00:00
Search period end: 26 October 2019 00:00
Orbit: 310 x 324 km, 54.5° (Epoch: 08 October)

Date Brightness Start Highest point End Pass type
(mag) Time Alt. Az. Time Alt. Az. Time Alt. Az.
16 Oct ? 01:05:32 15° E 01:05:32 15° E 01:06:05 10° E visible
16 Oct ? 02:36:26 23° WSW 02:37:28 32° SSW 02:39:57 10° SE visible
17 Oct ? 01:19:50 17° ESE 01:19:50 17° ESE 01:20:35 10° ESE visible
17 Oct ? 02:50:44 15° WSW 02:51:49 19° SW 02:53:52 10° SSE visible
18 Oct ? 01:34:13 16° SE 01:34:13 16° SE 01:34:58 10° SE visible
18 Oct ? 03:05:27 10° SW 03:06:05 11° SW 03:06:43 10° SSW visible
19 Oct ? 01:48:42 13° SSE 01:48:42 13° SSE 01:49:05 10° SSE visible
